Weather reports worldwide

Advertisment
Strathallan, United Kingdom (3144): temperature & dewpoint: 15.02.2019 20:00:00 - 21.02.2019 20:00:00 (GMT)Strathallan, United Kingdom (3144): temperature -20cm & temperature -100cm: 15.02.2019 20:00:00 - 21.02.2019 20:00:00 (GMT)Strathallan, United Kingdom (3144): wind speed & gusts: 15.02.2019 20:00:00 - 21.02.2019 20:00:00 (GMT)Strathallan, United Kingdom (3144): wind direction: 15.02.2019 20:00:00 - 21.02.2019 20:00:00 (GMT)Strathallan, United Kingdom (3144): reduced air pressure: 15.02.2019 20:00:00 - 21.02.2019 20:00:00 (GMT)Strathallan, United Kingdom (3144): visibility: 15.02.2019 20:00:00 - 21.02.2019 20:00:00 (GMT)Strathallan, United Kingdom (3144): precipitation: 15.02.2019 20:00:00 - 21.02.2019 20:00:00 (GMT)
Date & Time tt [°C] td [°C] tt -20cm [°C] tt -100cm [°C] ff [km/h] ff [kn] fx [km/h] fx [kn] dd ppp [hPa] vv [km] rr [mm]
21.02.2019 20:00:00 10,4 6,8 - - 18 10 - - SW 1024,0 26 0,0
21.02.2019 19:00:00 10,4 7,0 - - 11 6 - - WSW 1023,3 29 0,0
21.02.2019 18:00:00 11,7 8,0 - - 8 4 - - SW 1022,5 40 0,0
21.02.2019 17:00:00 12,8 8,7 - - 13 7 - - SW 1021,7 45 0,0
21.02.2019 16:00:00 13,0 9,2 - - 15 8 - - SW 1021,0 45 0,0
21.02.2019 15:00:00 13,0 9,6 - - 13 7 - - WSW 1020,6 35 0,0
21.02.2019 14:00:00 12,5 9,5 - - 13 7 - - SW 1020,0 35 0,0
21.02.2019 13:00:00 12,9 9,5 - - 16 9 - - WSW 1019,7 30 0,0
21.02.2019 12:00:00 13,1 11,0 - - 18 10 - - SW 1018,9 35 0,0
21.02.2019 11:00:00 11,6 10,4 - - 8 4 - - W 1018,3 30 0,0
21.02.2019 10:00:00 11,2 10,1 - - 11 6 - - WSW 1017,7 13 0,0
21.02.2019 09:00:00 11,0 9,9 5,9 5,2 11 6 - - WSW 1016,7 26 0,0
21.02.2019 08:00:00 10,8 9,9 - - 9 5 - - SW 1015,7 17 0,0
21.02.2019 07:00:00 10,2 9,6 - - 4 2 - - WSW 1014,9 17 0,0
21.02.2019 06:00:00 10,2 9,6 - - 9 5 - - WSW 1014,2 8 0,0
21.02.2019 05:00:00 10,2 9,5 - - 9 5 - - WSW 1013,5 23 0,0
21.02.2019 04:00:00 10,0 9,4 - - 5 3 - - SW 1013,1 10 0,2
21.02.2019 03:00:00 10,4 9,1 - - 16 9 - - WSW 1012,7 11 0,0
21.02.2019 02:00:00 10,4 9,0 - - 15 8 - - SW 1012,3 20 0,0
21.02.2019 01:00:00 10,5 9,1 - - 18 10 - - SW 1012,1 19 0,0
21.02.2019 00:00:00 10,3 9,0 - - 11 6 - - WSW 1011,5 25 0,0
20.02.2019 23:00:00 10,2 8,9 - - 24 13 - - SW 1010,8 26 0,0
20.02.2019 22:00:00 10,3 8,8 - - 21 11 - - WSW 1010,6 30 0,0
20.02.2019 21:00:00 10,2 8,9 - - 18 10 - - SW 1009,9 30 0,0
20.02.2019 20:00:00 10,3 9,1 - - 15 8 - - WSW 1009,2 50 0,0
20.02.2019 19:00:00 10,3 9,1 - - 11 6 - - SW 1008,9 45 0,4
20.02.2019 18:00:00 10,8 8,9 - - 18 10 - - SW 1008,3 50 0,0
20.02.2019 17:00:00 11,1 9,1 - - 21 11 - - SW 1007,6 17 0,0
20.02.2019 16:00:00 11,0 9,2 - - 22 12 - - SW 1007,0 30 0,4
20.02.2019 15:00:00 11,6 9,0 - - 28 15 48 26 SW 1007,0 45 0,0
20.02.2019 14:00:00 11,4 9,0 - - 28 15 48 26 SW 1006,9 30 -
20.02.2019 13:00:00 11,3 9,1 - - 26 14 52 28 SW 1006,9 8 0,0
20.02.2019 12:00:00 11,2 8,6 - - 31 17 52 28 SW 1007,0 40 0,0
20.02.2019 11:00:00 10,4 8,5 - - 24 13 - - SW 1006,6 20 0,0
20.02.2019 10:00:00 10,2 8,3 - - 28 15 - - SSW 1006,3 10 0,2
20.02.2019 09:00:00 10,2 7,9 5,0 5,0 24 13 - - SW 1006,2 8 0,0
20.02.2019 08:00:00 10,3 8,4 - - 22 12 - - SW 1005,6 25 0,0
20.02.2019 07:00:00 10,2 8,7 - - 15 8 - - SSW 1005,4 13 0,0
20.02.2019 06:00:00 8,6 8,4 - - 4 2 - - WNW 1005,4 40 0,0
20.02.2019 05:00:00 7,2 7,1 - - 2 1 - - WNW 1005,2 16 0,2
20.02.2019 04:00:00 7,3 7,1 - - 8 4 - - NW 1005,1 7 1,0
20.02.2019 03:00:00 6,2 5,9 - - 5 3 - - WSW 1005,2 4,3 0,4
20.02.2019 02:00:00 6,0 5,7 - - 2 1 - - N 1005,9 2,4 0,0
20.02.2019 01:00:00 6,1 5,5 - - 2 1 - - WSW 1006,2 4,6 0,6
20.02.2019 00:00:00 6,2 5,5 - - 2 1 - - NNW 1006,8 13 0,0
19.02.2019 23:00:00 6,4 5,6 - - 2 1 - - N 1006,9 24 0,4
19.02.2019 22:00:00 6,5 5,2 - - 4 2 - - WNW 1007,4 19 0,8
19.02.2019 21:00:00 6,9 5,1 - - 4 2 - - SSW 1008,2 24 0,6
19.02.2019 20:00:00 6,5 4,9 - - 5 3 - - SE 1008,7 30 0,2
19.02.2019 19:00:00 6,3 4,1 - - 4 2 - - SE 1009,3 16 0,2
19.02.2019 18:00:00 6,5 3,2 - - 2 1 - - SSW 1009,6 50 0,2
19.02.2019 17:00:00 7,0 3,5 - - 9 5 - - SSW 1010,1 40 0,0
19.02.2019 16:00:00 7,4 3,5 - - 15 8 - - SW 1010,3 35 0,0
19.02.2019 15:00:00 7,9 4,0 - - 13 7 - - SW 1010,6 35 0,0
19.02.2019 14:00:00 7,7 3,8 - - 13 7 - - SW 1010,6 30 0,0
19.02.2019 13:00:00 8,0 4,5 - - 16 9 - - SW 1010,8 40 0,0
19.02.2019 12:00:00 7,4 5,1 - - 21 11 - - SW 1011,0 35 0,0
19.02.2019 11:00:00 7,0 5,4 - - 16 9 - - WSW 1010,7 35 0,0
19.02.2019 10:00:00 6,4 5,1 - - 15 8 - - WSW 1010,5 40 0,0
19.02.2019 09:00:00 5,7 4,0 5,0 5,0 16 9 - - SW 1010,1 35 0,0
19.02.2019 08:00:00 5,3 3,2 - - 18 10 - - SW 1009,6 30 0,0
19.02.2019 07:00:00 5,0 2,4 - - 18 10 - - SW 1009,0 45 0,0
19.02.2019 06:00:00 4,5 1,8 - - 11 6 - - SW 1008,7 40 0,0
19.02.2019 05:00:00 5,7 1,5 - - 15 8 - - W 1008,2 50 0,0
19.02.2019 04:00:00 4,9 1,9 - - 11 6 - - WSW 1007,5 50 0,0
19.02.2019 03:00:00 5,6 2,7 - - 16 9 - - SW 1007,3 45 0,0
19.02.2019 02:00:00 5,8 2,4 - - 24 13 - - SW 1006,5 30 0,0
19.02.2019 01:00:00 6,0 2,3 - - 21 11 - - WSW 1005,9 35 0,0
19.02.2019 00:00:00 7,1 3,0 - - 21 11 - - SW 1005,2 45 0,0
18.02.2019 23:00:00 7,4 3,0 - - 28 15 54 29 SW 1004,1 50 0,0
18.02.2019 22:00:00 7,0 3,5 - - 22 12 50 27 WSW 1003,4 50 0,0
18.02.2019 21:00:00 6,2 4,6 - - 24 13 - - SW 1002,8 50 0,0
18.02.2019 20:00:00 6,5 4,4 - - 18 10 46 25 SW 1002,4 50 0,0
18.02.2019 19:00:00 6,2 4,3 - - 24 13 - - SW 1001,5 50 0,0
18.02.2019 18:00:00 6,9 4,1 - - 29 16 55 30 SW 1000,8 50 0,0
18.02.2019 17:00:00 7,7 4,6 - - 34 18 55 30 SW 1000,2 50 0,0
18.02.2019 16:00:00 7,8 4,5 - - 31 17 50 27 SW 1000,2 26 0,2
18.02.2019 15:00:00 7,3 5,1 - - 31 17 52 28 SW 999,9 12 0,4
18.02.2019 14:00:00 7,2 4,6 - - 29 16 54 29 SW 999,8 11 0,0
18.02.2019 13:00:00 7,6 3,9 - - 31 17 59 32 SW 1000,6 27 0,0
18.02.2019 12:00:00 7,8 3,9 - - 28 15 50 27 SW 1001,1 12 0,0
18.02.2019 11:00:00 8,2 3,1 - - 31 17 54 29 SSW 1000,7 35 0,0
18.02.2019 10:00:00 7,8 2,8 - - 24 13 59 32 SW 1001,2 21 0,0
18.02.2019 09:00:00 7,0 2,4 5,2 4,9 22 12 - - SW 1001,2 23 0,0
18.02.2019 08:00:00 6,6 2,3 - - 24 13 - - WSW 1001,4 25 0,0
18.02.2019 07:00:00 6,8 2,4 - - 24 13 50 27 SW 1001,4 40 0,0
18.02.2019 06:00:00 7,0 3,5 - - 26 14 46 25 SW 1001,3 50 0,0
18.02.2019 05:00:00 7,2 4,6 - - 21 11 46 25 SW 1001,1 15 0,2
18.02.2019 04:00:00 7,6 4,8 - - 24 13 - - SSW 1001,2 24 0,6
18.02.2019 03:00:00 8,0 4,6 - - 26 14 50 27 SSW 1001,6 11 0,0
18.02.2019 02:00:00 8,6 4,1 - - 26 14 - - SSW 1002,0 21 0,0
18.02.2019 01:00:00 8,7 4,3 - - 22 12 - - SW 1002,2 27 0,0
18.02.2019 00:00:00 9,0 4,7 - - 22 12 50 27 SSW 1002,1 21 0,0
17.02.2019 23:00:00 8,7 5,6 - - 18 10 - - SSW 1002,3 27 0,0
17.02.2019 22:00:00 7,8 6,1 - - 13 7 - - SSW 1002,6 13 0,6
17.02.2019 21:00:00 8,6 4,2 - - 22 12 - - S 1002,4 15 0,0
17.02.2019 20:00:00 9,0 3,8 - - 21 11 - - S 1002,9 30 0,0
17.02.2019 19:00:00 9,0 3,6 - - 15 8 - - SSW 1003,1 35 0,0
17.02.2019 18:00:00 9,2 3,3 - - 15 8 - - SSW 1003,0 35 0,0
17.02.2019 17:00:00 9,9 3,9 - - 18 10 - - SSW 1002,2 30 0,0
17.02.2019 16:00:00 10,5 5,1 - - 16 9 - - SW 1002,2 45 0,0
17.02.2019 15:00:00 10,5 6,5 - - 16 9 50 27 SW 1001,9 40 0,0
17.02.2019 14:00:00 10,7 7,1 - - 16 9 - - SSW 1001,7 50 0,8
17.02.2019 13:00:00 10,5 6,6 - - 21 11 - - S 1001,9 35 0,0
17.02.2019 12:00:00 10,4 6,8 - - 24 13 48 26 S 1002,5 11 0,0
17.02.2019 11:00:00 11,6 5,7 - - 21 11 - - S 1002,5 30 0,0
17.02.2019 10:00:00 11,2 5,2 - - 15 8 - - S 1003,4 30 0,0
17.02.2019 09:00:00 10,7 4,7 5,0 4,7 13 7 - - S 1004,0 30 0,0
17.02.2019 08:00:00 10,6 5,0 - - 15 8 - - SSW 1004,8 40 0,0
17.02.2019 07:00:00 10,6 5,6 - - 16 9 - - SW 1005,1 35 0,0
17.02.2019 06:00:00 10,8 6,0 - - 15 8 - - SW 1005,6 28 0,0
17.02.2019 05:00:00 11,1 6,7 - - 15 8 - - SSW 1006,1 21 0,0
17.02.2019 04:00:00 10,9 6,9 - - 15 8 - - SW 1006,7 21 0,0
17.02.2019 03:00:00 11,1 7,4 - - 13 7 - - SSW 1007,3 21 0,0
17.02.2019 02:00:00 11,3 7,8 - - 16 9 - - S 1007,6 30 0,0
17.02.2019 01:00:00 11,4 8,2 - - 16 9 - - S 1008,0 45 0,0
17.02.2019 00:00:00 8,4 6,2 - - 4 2 - - E 1008,8 30 0,0
16.02.2019 23:00:00 8,4 5,6 - - 2 1 - - NNE 1009,6 18 0,0
16.02.2019 22:00:00 7,9 4,9 - - 4 2 - - NNE 1010,1 23 0,0
16.02.2019 21:00:00 8,7 4,9 - - 5 3 - - SW 1010,9 30 0,0
16.02.2019 20:00:00 9,2 5,0 - - 8 4 - - S 1011,2 30 0,0
16.02.2019 19:00:00 9,6 5,0 - - 9 5 - - S 1011,5 35 0,0
16.02.2019 18:00:00 9,8 5,0 - - 13 7 - - SSW 1012,1 40 0,0
16.02.2019 17:00:00 9,9 4,7 - - 13 7 - - SW 1011,9 50 0,0
16.02.2019 16:00:00 10,0 4,6 - - 9 5 - - SW 1012,3 50 0,0
16.02.2019 15:00:00 9,8 4,8 - - 15 8 - - WSW 1012,7 50 0,0
16.02.2019 14:00:00 9,6 4,5 - - 22 12 - - WSW 1012,9 45 0,0
16.02.2019 13:00:00 9,6 5,8 - - 16 9 - - WSW 1013,5 40 0,0
16.02.2019 12:00:00 9,4 6,5 - - 22 12 - - SW 1013,4 30 0,0
16.02.2019 11:00:00 8,4 6,7 - - 26 14 - - SW 1013,3 25 0,2
16.02.2019 10:00:00 8,6 6,6 - - 16 9 - - SW 1013,1 13 0,4
16.02.2019 09:00:00 8,5 6,6 4,7 4,7 18 10 - - SSW 1012,8 7 0,2
16.02.2019 08:00:00 9,0 6,5 - - 18 10 - - SW 1012,2 7 0,0
16.02.2019 07:00:00 8,8 6,3 - - 21 11 - - SW 1011,4 40 0,0
16.02.2019 06:00:00 8,5 6,8 - - 16 9 - - SW 1011,2 23 0,0
16.02.2019 05:00:00 8,8 7,1 - - 22 12 - - SW 1010,7 12 0,0
16.02.2019 04:00:00 9,0 7,1 - - 13 7 - - SW 1010,6 6 0,0
16.02.2019 03:00:00 9,8 6,7 - - 22 12 - - SSW 1010,6 19 0,0
16.02.2019 02:00:00 10,4 6,9 - - 28 15 48 26 SW 1010,4 20 0,0
16.02.2019 01:00:00 10,8 7,7 - - 21 11 - - SW 1010,1 22 0,0
16.02.2019 00:00:00 10,8 8,1 - - 22 12 - - SW 1010,2 19 0,0
15.02.2019 23:00:00 10,4 8,3 - - 18 10 46 25 SW 1010,4 25 0,2
15.02.2019 22:00:00 10,3 6,5 - - 21 11 - - SSW 1010,7 17 0,0
15.02.2019 21:00:00 9,8 5,1 - - 18 10 - - SW 1012,0 24 0,0
15.02.2019 20:00:00 8,4 5,3 - - 8 4 - - WSW 1013,2 16 0,0

tt = temperature
td = dewpoint
tt -20cm = temperature -20cm
tt -100cm = temperature -100cm
ff = wind speed
fx = gusts
dd = wind direction
ppp = reduced air pressure
vv = visibility
rr = precipitation

Next stations